Time,TemperatureF,DewpointF,PressureIn,WindDirection,WindDirectionDegrees,WindSpeedMPH,WindSpeedGustMPH,Humidity,HourlyPrecipIn,Conditions,Clouds,dailyrainin,SoftwareType,DateUTC
2013-03-26 00:00:00,35.9,32.1,30.15,NW,319,0.0,0.0,86,0.00,,---,0.00,VWS V14.01,2013-03-26 05:00:00,
2013-03-26 00:05:00,35.8,32.0,30.15,NW,319,0.0,0.0,86,0.00,,---,0.00,VWS V14.01,2013-03-26 05:05:00,
2013-03-26 00:10:00,35.7,31.9,30.15,NW,319,0.0,0.0,86,0.00,,---,0.00,VWS V14.01,2013-03-26 05:10:00,
2013-03-26 00:15:00,35.6,31.8,30.16,NW,319,0.0,0.0,86,0.00,,---,0.00,VWS V14.01,2013-03-26 05:15:00,
2013-03-26 00:20:00,35.5,31.7,30.16,NW,319,0.0,0.0,86,0.00,,---,0.00,VWS V14.01,2013-03-26 05:20:00,
2013-03-26 00:25:00,35.4,31.6,30.16,NW,319,0.0,0.0,86,0.00,,---,0.00,VWS V14.01,2013-03-26 05:25:00,
2013-03-26 00:30:00,35.3,31.5,30.16,NW,319,0.0,0.0,86,0.00,,---,0.00,VWS V14.01,2013-03-26 05:30:00,
2013-03-26 00:35:00,35.2,31.4,30.16,NW,319,0.0,0.0,86,0.00,,---,0.00,VWS V14.01,2013-03-26 05:35:00,
2013-03-26 00:40:00,35.2,31.1,30.16,NW,319,0.0,0.0,85,0.00,,---,0.00,VWS V14.01,2013-03-26 05:40:00,
2013-03-26 00:45:00,35.3,31.2,30.17,NW,319,0.0,0.0,85,0.00,,---,0.00,VWS V14.01,2013-03-26 05:45:00,
2013-03-26 00:50:00,35.5,30.9,30.17,NW,319,0.0,0.0,83,0.00,,---,0.00,VWS V14.01,2013-03-26 05:50:00,
2013-03-26 00:55:00,35.7,31.0,30.17,NNW,327,0.0,0.0,83,0.00,,---,0.00,VWS V14.01,2013-03-26 05:55:00,
2013-03-26 01:00:00,36.2,31.2,30.17,NW,326,0.0,1.0,82,0.00,,---,0.00,VWS V14.01,2013-03-26 06:00:00,
2013-03-26 01:05:00,36.7,31.1,30.17,North,1,0.0,0.0,80,0.00,,---,0.00,VWS V14.01,2013-03-26 06:05:00,
2013-03-26 01:10:00,36.9,31.0,30.17,North,1,0.0,0.0,79,0.00,,---,0.00,VWS V14.01,2013-03-26 06:10:00,
2013-03-26 01:15:00,37.0,31.1,30.17,WNW,302,0.0,1.0,79,0.00,,---,0.00,VWS V14.01,2013-03-26 06:15:00,
2013-03-26 01:20:00,37.1,30.9,30.17,West,264,0.0,1.0,78,0.00,,---,0.00,VWS V14.01,2013-03-26 06:20:00,
2013-03-26 01:25:00,37.2,31.0,30.18,NNW,343,0.0,1.0,78,0.00,,---,0.00,VWS V14.01,2013-03-26 06:25:00,
2013-03-26 01:30:00,37.1,30.9,30.17,NNW,342,0.0,1.0,78,0.00,,---,0.00,VWS V14.01,2013-03-26 06:30:00,
2013-03-26 01:35:00,37.1,30.9,30.18,WSW,249,0.0,0.0,78,0.00,,---,0.00,VWS V14.01,2013-03-26 06:35:00,
2013-03-26 01:40:00,37.1,30.9,30.18,WSW,250,0.0,0.0,78,0.00,,---,0.00,VWS V14.01,2013-03-26 06:40:00,
2013-03-26 01:45:00,37.3,30.8,30.18,WSW,248,0.0,0.0,77,0.00,,---,0.00,VWS V14.01,2013-03-26 06:45:00,
2013-03-26 01:50:00,37.5,31.0,30.18,ESE,122,0.0,1.0,77,0.00,,---,0.00,VWS V14.01,2013-03-26 06:50:00,
2013-03-26 01:55:00,37.7,30.8,30.18,WNW,297,0.0,1.0,76,0.00,,---,0.00,VWS V14.01,2013-03-26 06:55:00,
2013-03-26 02:00:00,37.8,30.9,30.18,SE,127,0.0,1.0,76,0.00,,---,0.00,VWS V14.01,2013-03-26 07:00:00,
2013-03-26 02:05:00,37.8,30.9,30.18,SE,127,0.0,0.0,76,0.00,,---,0.00,VWS V14.01,2013-03-26 07:05:00,
2013-03-26 02:10:00,37.7,30.8,30.19,SE,127,0.0,0.0,76,0.00,,---,0.00,VWS V14.01,2013-03-26 07:10:00,
2013-03-26 02:15:00,37.5,31.0,30.19,SE,124,0.0,0.0,77,0.00,,---,0.00,VWS V14.01,2013-03-26 07:15:00,
2013-03-26 02:20:00,37.3,30.8,30.19,ESE,104,0.0,0.0,77,0.00,,---,0.00,VWS V14.01,2013-03-26 07:20:00,
2013-03-26 02:25:00,37.2,30.7,30.19,SSW,195,0.0,1.0,77,0.00,,---,0.00,VWS V14.01,2013-03-26 07:25:00,
2013-03-26 02:30:00,37.0,30.5,30.18,NW,310,0.0,1.0,77,0.00,,---,0.00,VWS V14.01,2013-03-26 07:30:00,
2013-03-26 02:35:00,36.7,30.2,30.19,NW,311,0.0,0.0,77,0.00,,---,0.00,VWS V14.01,2013-03-26 07:35:00,
2013-03-26 02:40:00,36.5,30.0,30.19,NW,310,0.0,0.0,77,0.00,,---,0.00,VWS V14.01,2013-03-26 07:40:00,
2013-03-26 02:45:00,36.3,30.1,30.19,NW,311,0.0,0.0,78,0.00,,---,0.00,VWS V14.01,2013-03-26 07:45:00,
2013-03-26 02:50:00,36.2,30.3,30.19,NE,55,0.0,0.0,79,0.00,,---,0.00,VWS V14.01,2013-03-26 07:50:00,
2013-03-26 02:55:00,36.0,30.1,30.19,NE,53,0.0,0.0,79,0.00,,---,0.00,VWS V14.01,2013-03-26 07:55:00,
2013-03-26 03:00:00,35.8,30.2,30.19,NE,54,0.0,0.0,80,0.00,,---,0.00,VWS V14.01,2013-03-26 08:00:00,
2013-03-26 03:05:00,35.6,30.0,30.20,NE,54,0.0,0.0,80,0.00,,---,0.00,VWS V14.01,2013-03-26 08:05:00,
2013-03-26 03:10:00,35.3,30.1,30.19,NE,53,0.0,0.0,81,0.00,,---,0.00,VWS V14.01,2013-03-26 08:10:00,
2013-03-26 03:15:00,35.0,29.8,30.20,NE,54,0.0,0.0,81,0.00,,---,0.00,VWS V14.01,2013-03-26 08:15:00,
2013-03-26 03:20:00,34.8,29.9,30.20,NE,53,0.0,0.0,82,0.00,,---,0.00,VWS V14.01,2013-03-26 08:20:00,
2013-03-26 03:25:00,34.5,29.6,30.20,NE,54,0.0,0.0,82,0.00,,---,0.00,VWS V14.01,2013-03-26 08:25:00,
2013-03-26 03:30:00,34.3,29.7,30.20,NE,54,0.0,0.0,83,0.00,,---,0.00,VWS V14.01,2013-03-26 08:30:00,
2013-03-26 03:35:00,33.9,29.3,30.20,NE,53,0.0,0.0,83,0.00,,---,0.00,VWS V14.01,2013-03-26 08:35:00,
2013-03-26 03:40:00,33.7,29.4,30.20,NE,54,0.0,0.0,84,0.00,,---,0.00,VWS V14.01,2013-03-26 08:40:00,
2013-03-26 03:45:00,33.5,29.8,30.20,NE,54,0.0,0.0,86,0.00,,---,0.00,VWS V14.01,2013-03-26 08:45:00,
2013-03-26 03:50:00,33.2,29.5,30.20,NE,54,0.0,0.0,86,0.00,,---,0.00,VWS V14.01,2013-03-26 08:50:00,
2013-03-26 03:55:00,33.1,29.4,30.20,NE,54,0.0,0.0,86,0.00,,---,0.00,VWS V14.01,2013-03-26 08:55:00,
2013-03-26 04:00:00,33.0,29.3,30.21,NE,54,0.0,0.0,86,0.00,,---,0.00,VWS V14.01,2013-03-26 09:00:00,
2013-03-26 04:05:00,32.9,29.2,30.21,NE,54,0.0,0.0,86,0.00,,---,0.00,VWS V14.01,2013-03-26 09:05:00,
2013-03-26 04:10:00,32.7,29.0,30.21,NE,54,0.0,0.0,86,0.00,,---,0.00,VWS V14.01,2013-03-26 09:10:00,
2013-03-26 04:15:00,32.4,29.0,30.21,NE,54,0.0,0.0,87,0.00,,---,0.00,VWS V14.01,2013-03-26 09:15:00,
2013-03-26 04:20:00,32.2,28.8,30.22,NE,53,0.0,0.0,87,0.00,,---,0.00,VWS V14.01,2013-03-26 09:20:00,
2013-03-26 04:25:00,32.0,28.6,30.22,NE,54,0.0,0.0,87,0.00,,---,0.00,VWS V14.01,2013-03-26 09:25:00,
2013-03-26 04:30:00,31.8,28.7,30.22,NE,54,0.0,0.0,88,0.00,,---,0.00,VWS V14.01,2013-03-26 09:30:00,
2013-03-26 04:35:00,31.7,28.6,30.22,NE,53,0.0,0.0,88,0.00,,---,0.00,VWS V14.01,2013-03-26 09:35:00,
2013-03-26 04:40:00,31.7,28.6,30.22,NE,53,0.0,0.0,88,0.00,,---,0.00,VWS V14.01,2013-03-26 09:40:00,
2013-03-26 04:45:00,31.6,28.5,30.22,NE,54,0.0,0.0,88,0.00,,---,0.00,VWS V14.01,2013-03-26 09:45:00,
2013-03-26 04:50:00,31.6,28.7,30.22,NE,54,0.0,0.0,89,0.00,,---,0.00,VWS V14.01,2013-03-26 09:50:00,
2013-03-26 04:55:00,31.4,28.5,30.22,NE,54,0.0,0.0,89,0.00,,---,0.00,VWS V14.01,2013-03-26 09:55:00,
2013-03-26 05:00:00,31.3,28.4,30.22,NE,54,0.0,0.0,89,0.00,,---,0.00,VWS V14.01,2013-03-26 10:00:00,
2013-03-26 05:05:00,31.1,28.2,30.22,NE,54,0.0,0.0,89,0.00,,---,0.00,VWS V14.01,2013-03-26 10:05:00,
2013-03-26 05:10:00,31.1,28.5,30.22,NE,53,0.0,0.0,90,0.00,,---,0.00,VWS V14.01,2013-03-26 10:10:00,
2013-03-26 05:15:00,31.0,28.4,30.22,NE,54,0.0,0.0,90,0.00,,---,0.00,VWS V14.01,2013-03-26 10:15:00,
2013-03-26 05:20:00,31.0,28.4,30.22,NE,53,0.0,0.0,90,0.00,,---,0.00,VWS V14.01,2013-03-26 10:20:00,
2013-03-26 05:25:00,30.9,28.3,30.23,NE,53,0.0,0.0,90,0.00,,---,0.00,VWS V14.01,2013-03-26 10:25:00,
2013-03-26 05:30:00,30.9,28.3,30.23,NE,53,0.0,0.0,90,0.00,,---,0.00,VWS V14.01,2013-03-26 10:30:00,
2013-03-26 05:35:00,30.8,28.2,30.23,NE,54,0.0,0.0,90,0.00,,---,0.00,VWS V14.01,2013-03-26 10:35:00,
2013-03-26 05:40:00,30.8,28.2,30.23,NE,54,0.0,0.0,90,0.00,,---,0.00,VWS V14.01,2013-03-26 10:40:00,
2013-03-26 05:45:00,30.8,28.2,30.24,NE,54,0.0,0.0,90,0.00,,---,0.00,VWS V14.01,2013-03-26 10:45:00,
2013-03-26 05:50:00,30.7,28.1,30.24,NE,54,0.0,0.0,90,0.00,,---,0.00,VWS V14.01,2013-03-26 10:50:00,
2013-03-26 05:55:00,30.6,28.0,30.24,NE,54,0.0,0.0,90,0.00,,---,0.00,VWS V14.01,2013-03-26 10:55:00,
2013-03-26 06:00:00,30.4,28.1,30.24,NE,54,0.0,0.0,91,0.00,,---,0.00,VWS V14.01,2013-03-26 11:00:00,
2013-03-26 06:05:00,30.3,28.0,30.24,NE,54,0.0,0.0,91,0.00,,---,0.00,VWS V14.01,2013-03-26 11:05:00,
2013-03-26 06:10:00,30.3,28.0,30.24,NE,54,0.0,0.0,91,0.00,,---,0.00,VWS V14.01,2013-03-26 11:10:00,
2013-03-26 06:15:00,30.3,28.0,30.24,NE,54,0.0,0.0,91,0.00,,---,0.00,VWS V14.01,2013-03-26 11:15:00,
2013-03-26 06:20:00,30.2,27.9,30.24,NE,54,0.0,0.0,91,0.00,,---,0.00,VWS V14.01,2013-03-26 11:20:00,
2013-03-26 06:25:00,30.2,27.9,30.24,NE,54,0.0,0.0,91,0.00,,---,0.00,VWS V14.01,2013-03-26 11:25:00,
2013-03-26 06:30:00,30.1,27.8,30.24,NE,53,0.0,0.0,91,0.00,,---,0.00,VWS V14.01,2013-03-26 11:30:00,
2013-03-26 06:35:00,30.1,28.1,30.24,NE,53,0.0,0.0,92,0.00,,---,0.00,VWS V14.01,2013-03-26 11:35:00,
2013-03-26 06:40:00,30.0,28.0,30.25,NE,53,0.0,0.0,92,0.00,,---,0.00,VWS V14.01,2013-03-26 11:40:00,
2013-03-26 06:45:00,29.9,27.9,30.25,NE,54,0.0,0.0,92,0.00,,---,0.00,VWS V14.01,2013-03-26 11:45:00,
2013-03-26 06:50:00,29.9,27.9,30.25,NE,54,0.0,0.0,92,0.00,,---,0.00,VWS V14.01,2013-03-26 11:50:00,
2013-03-26 06:55:00,29.9,27.9,30.25,NE,53,0.0,0.0,92,0.00,,---,0.00,VWS V14.01,2013-03-26 11:55:00,
2013-03-26 07:00:00,29.8,27.8,30.25,NE,53,0.0,0.0,92,0.00,,---,0.00,VWS V14.01,2013-03-26 12:00:00,
2013-03-26 07:05:00,29.7,27.7,30.25,NE,54,0.0,0.0,92,0.00,,---,0.00,VWS V14.01,2013-03-26 12:05:00,
2013-03-26 07:10:00,29.7,27.7,30.26,NE,54,0.0,0.0,92,0.00,,---,0.00,VWS V14.01,2013-03-26 12:10:00,
2013-03-26 07:15:00,29.8,27.8,30.26,NE,54,0.0,0.0,92,0.00,,---,0.00,VWS V14.01,2013-03-26 12:15:00,
2013-03-26 07:20:00,29.9,28.1,30.26,NE,53,0.0,0.0,93,0.00,,---,0.00,VWS V14.01,2013-03-26 12:20:00,
2013-03-26 07:25:00,30.0,28.2,30.26,NE,53,0.0,0.0,93,0.00,,---,0.00,VWS V14.01,2013-03-26 12:25:00,
2013-03-26 07:30:00,30.2,28.4,30.26,NE,54,0.0,0.0,93,0.00,,---,0.00,VWS V14.01,2013-03-26 12:30:00,
2013-03-26 07:35:00,30.4,28.6,30.26,NE,53,0.0,0.0,93,0.00,,---,0.00,VWS V14.01,2013-03-26 12:35:00,
2013-03-26 07:40:00,30.5,28.7,30.26,NE,54,0.0,0.0,93,0.00,,---,0.00,VWS V14.01,2013-03-26 12:40:00,
2013-03-26 07:45:00,30.6,28.8,30.26,NE,54,0.0,0.0,93,0.00,,---,0.00,VWS V14.01,2013-03-26 12:45:00,
2013-03-26 07:50:00,30.9,29.1,30.26,NE,54,0.0,0.0,93,0.00,,---,0.00,VWS V14.01,2013-03-26 12:50:00,
2013-03-26 07:55:00,31.2,29.4,30.26,NE,54,0.0,0.0,93,0.00,,---,0.00,VWS V14.01,2013-03-26 12:55:00,
2013-03-26 08:00:00,31.5,29.7,30.27,NE,54,0.0,0.0,93,0.00,,---,0.00,VWS V14.01,2013-03-26 13:00:00,
2013-03-26 08:05:00,32.0,30.2,30.27,NE,53,0.0,0.0,93,0.00,,---,0.00,VWS V14.01,2013-03-26 13:05:00,
2013-03-26 08:10:00,32.7,30.6,30.27,NE,54,0.0,0.0,92,0.00,,---,0.00,VWS V14.01,2013-03-26 13:10:00,
2013-03-26 08:15:00,33.7,31.4,30.27,NNW,343,0.0,0.0,91,0.00,,---,0.00,VWS V14.01,2013-03-26 13:15:00,
2013-03-26 08:20:00,35.0,31.8,30.27,ENE,67,0.0,1.0,88,0.00,,---,0.00,VWS V14.01,2013-03-26 13:20:00,
2013-03-26 08:25:00,36.3,31.9,30.28,NNW,328,0.0,2.0,84,0.00,,---,0.00,VWS V14.01,2013-03-26 13:25:00,
2013-03-26 08:30:00,37.9,32.6,30.28,NNW,345,0.0,2.0,81,0.00,,---,0.00,VWS V14.01,2013-03-26 13:30:00,
2013-03-26 08:35:00,39.3,32.7,30.28,ENE,75,0.0,1.0,77,0.00,,---,0.00,VWS V14.01,2013-03-26 13:35:00,
2013-03-26 08:40:00,40.8,32.8,30.28,NE,46,0.0,1.0,73,0.00,,---,0.00,VWS V14.01,2013-03-26 13:40:00,
2013-03-26 08:45:00,41.9,32.5,30.28,NNE,27,0.0,1.0,69,0.00,,---,0.00,VWS V14.01,2013-03-26 13:45:00,
2013-03-26 08:50:00,42.7,32.2,30.28,NNW,340,0.0,3.0,66,0.00,,---,0.00,VWS V14.01,2013-03-26 13:50:00,
2013-03-26 08:55:00,43.2,31.9,30.28,SE,138,1.0,3.0,64,0.00,,---,0.00,VWS V14.01,2013-03-26 13:55:00,
2013-03-26 09:00:00,43.6,31.5,30.28,North,358,0.0,3.0,62,0.00,,---,0.00,VWS V14.01,2013-03-26 14:00:00,
2013-03-26 09:05:00,44.1,31.1,30.28,NE,39,0.0,3.0,60,0.00,,---,0.00,VWS V14.01,2013-03-26 14:05:00,
2013-03-26 09:10:00,44.4,31.8,30.28,ENE,75,5.0,5.0,61,0.00,,---,0.00,VWS V14.01,2013-03-26 14:10:00,
2013-03-26 09:15:00,44.9,30.6,30.28,SSW,208,0.0,5.0,57,0.00,,---,0.00,VWS V14.01,2013-03-26 14:15:00,
2013-03-26 09:20:00,45.5,30.7,30.28,SW,222,0.0,5.0,56,0.00,,---,0.00,VWS V14.01,2013-03-26 14:20:00,
2013-03-26 09:25:00,46.0,30.8,30.28,West,263,0.0,5.0,55,0.00,,---,0.00,VWS V14.01,2013-03-26 14:25:00,
2013-03-26 09:30:00,46.4,31.1,30.28,SSE,166,0.0,5.0,55,0.00,,---,0.00,VWS V14.01,2013-03-26 14:30:00,
2013-03-26 09:35:00,46.6,30.4,30.28,ENE,75,0.0,2.0,53,0.00,,---,0.00,VWS V14.01,2013-03-26 14:35:00,
2013-03-26 09:40:00,46.9,29.7,30.28,SE,130,0.0,4.0,51,0.00,,---,0.00,VWS V14.01,2013-03-26 14:40:00,
2013-03-26 09:45:00,46.9,30.2,30.28,NW,312,1.0,4.0,52,0.00,,---,0.00,VWS V14.01,2013-03-26 14:45:00,
2013-03-26 09:50:00,47.4,29.2,30.28,West,276,0.0,4.0,49,0.00,,---,0.00,VWS V14.01,2013-03-26 14:50:00,
2013-03-26 09:55:00,47.4,29.7,30.28,WSW,245,0.0,4.0,50,0.00,,---,0.00,VWS V14.01,2013-03-26 14:55:00,
2013-03-26 10:00:00,47.7,28.5,30.28,SSW,199,0.0,6.0,47,0.00,,---,0.00,VWS V14.01,2013-03-26 15:00:00,
2013-03-26 10:05:00,47.8,29.1,30.27,North,1,0.0,1.0,48,0.00,,---,0.00,VWS V14.01,2013-03-26 15:05:00,
2013-03-26 10:10:00,48.3,29.0,30.27,East,94,1.0,4.0,47,0.00,,---,0.00,VWS V14.01,2013-03-26 15:10:00,
2013-03-26 10:15:00,48.3,29.5,30.27,SW,231,0.0,4.0,48,0.00,,---,0.00,VWS V14.01,2013-03-26 15:15:00,
2013-03-26 10:20:00,48.7,28.9,30.27,SSE,152,0.0,4.0,46,0.00,,---,0.00,VWS V14.01,2013-03-26 15:20:00,
2013-03-26 10:25:00,49.0,30.2,30.27,WNW,295,1.0,4.0,48,0.00,,---,0.00,VWS V14.01,2013-03-26 15:25:00,
2013-03-26 10:29:00,49.3,28.3,30.27,East,80,1.0,4.0,44,0.00,,---,0.00,VWS V14.01,2013-03-26 15:29:00,
2013-03-26 10:34:00,49.7,28.1,30.27,SW,214,0.0,2.0,43,0.00,,---,0.00,VWS V14.01,2013-03-26 15:34:00,
2013-03-26 10:39:00,49.8,29.3,30.27,West,267,0.0,4.0,45,0.00,,---,0.00,VWS V14.01,2013-03-26 15:39:00,
2013-03-26 10:44:00,50.1,29.6,30.27,SW,233,0.0,4.0,45,0.00,,---,0.00,VWS V14.01,2013-03-26 15:44:00,
2013-03-26 10:49:00,50.8,31.3,30.27,WSW,251,3.0,4.0,47,0.00,,---,0.00,VWS V14.01,2013-03-26 15:49:00,
2013-03-26 10:54:00,51.2,29.5,30.27,WSW,257,3.0,4.0,43,0.00,,---,0.00,VWS V14.01,2013-03-26 15:54:00,
2013-03-26 10:59:00,51.6,29.3,30.27,West,259,0.0,4.0,42,0.00,,---,0.00,VWS V14.01,2013-03-26 15:59:00,
2013-03-26 11:04:00,51.3,29.6,30.27,WSW,245,0.0,2.0,43,0.00,,---,0.00,VWS V14.01,2013-03-26 16:04:00,
2013-03-26 11:09:00,51.6,29.9,30.27,SSW,211,0.0,5.0,43,0.00,,---,0.00,VWS V14.01,2013-03-26 16:09:00,
2013-03-26 11:14:00,52.2,30.4,30.27,WNW,301,2.0,5.0,43,0.00,,---,0.00,VWS V14.01,2013-03-26 16:14:00,
2013-03-26 11:19:00,52.3,28.7,30.26,SW,228,0.0,5.0,40,0.00,,---,0.00,VWS V14.01,2013-03-26 16:19:00,
2013-03-26 11:24:00,52.5,28.3,30.27,NW,319,6.0,6.0,39,0.00,,---,0.00,VWS V14.01,2013-03-26 16:24:00,
2013-03-26 11:29:00,52.6,29.0,30.26,SW,214,0.0,7.0,40,0.00,,---,0.00,VWS V14.01,2013-03-26 16:29:00,
2013-03-26 11:34:00,53.0,28.7,30.26,WSW,241,1.0,2.0,39,0.00,,---,0.00,VWS V14.01,2013-03-26 16:34:00,
2013-03-26 11:39:00,53.3,30.8,30.26,SSW,198,2.0,4.0,42,0.00,,---,0.00,VWS V14.01,2013-03-26 16:39:00,
2013-03-26 11:44:00,53.9,30.1,30.26,West,277,1.0,4.0,40,0.00,,---,0.00,VWS V14.01,2013-03-26 16:44:00,
2013-03-26 11:49:00,53.7,29.4,30.26,WSW,238,3.0,6.0,39,0.00,,---,0.00,VWS V14.01,2013-03-26 16:49:00,
2013-03-26 11:54:00,54.0,28.3,30.26,ESE,105,1.0,6.0,37,0.00,,---,0.00,VWS V14.01,2013-03-26 16:54:00,
2013-03-26 11:59:00,53.7,28.7,30.26,ENE,68,1.0,6.0,38,0.00,,---,0.00,VWS V14.01,2013-03-26 16:59:00,
2013-03-26 12:04:00,53.9,28.2,30.26,NE,54,0.0,5.0,37,0.00,,---,0.00,VWS V14.01,2013-03-26 17:04:00,
2013-03-26 12:09:00,54.5,29.4,30.26,WSW,237,0.0,5.0,38,0.00,,---,0.00,VWS V14.01,2013-03-26 17:09:00,
2013-03-26 12:14:00,54.8,31.0,30.25,West,259,1.0,5.0,40,0.00,,---,0.00,VWS V14.01,2013-03-26 17:14:00,
2013-03-26 12:19:00,55.4,28.9,30.25,NE,37,0.0,7.0,36,0.00,,---,0.00,VWS V14.01,2013-03-26 17:19:00,
2013-03-26 12:24:00,55.2,28.7,30.25,ENE,78,1.0,7.0,36,0.00,,---,0.00,VWS V14.01,2013-03-26 17:24:00,
2013-03-26 12:29:00,55.5,31.0,30.24,West,278,0.0,7.0,39,0.00,,---,0.00,VWS V14.01,2013-03-26 17:29:00,
2013-03-26 12:34:00,55.8,29.3,30.24,South,188,0.0,2.0,36,0.00,,---,0.00,VWS V14.01,2013-03-26 17:34:00,
2013-03-26 12:39:00,56.4,31.1,30.24,West,264,1.0,3.0,38,0.00,,---,0.00,VWS V14.01,2013-03-26 17:39:00,
2013-03-26 12:44:00,56.2,31.0,30.24,SE,124,2.0,6.0,38,0.00,,---,0.00,VWS V14.01,2013-03-26 17:44:00,
2013-03-26 12:49:00,56.1,29.5,30.24,West,274,0.0,6.0,36,0.00,,---,0.00,VWS V14.01,2013-03-26 17:49:00,
2013-03-26 12:54:00,56.6,31.3,30.23,West,268,0.0,8.0,38,0.00,,---,0.00,VWS V14.01,2013-03-26 17:54:00,
2013-03-26 12:59:00,56.5,29.2,30.23,SW,231,0.0,10.0,35,0.00,,---,0.00,VWS V14.01,2013-03-26 17:59:00,
2013-03-26 13:04:00,57.2,30.5,30.23,East,86,0.0,6.0,36,0.00,,---,0.00,VWS V14.01,2013-03-26 18:04:00,
2013-03-26 13:09:00,57.4,30.0,30.23,SSW,207,0.0,6.0,35,0.00,,---,0.00,VWS V14.01,2013-03-26 18:09:00,
2013-03-26 13:14:00,57.4,31.4,30.22,East,81,1.0,6.0,37,0.00,,---,0.00,VWS V14.01,2013-03-26 18:14:00,
2013-03-26 13:19:00,57.4,28.5,30.22,SSW,212,2.0,6.0,33,0.00,,---,0.00,VWS V14.01,2013-03-26 18:19:00,
2013-03-26 13:24:00,57.6,30.9,30.22,West,268,0.0,6.0,36,0.00,,---,0.00,VWS V14.01,2013-03-26 18:24:00,
2013-03-26 13:29:00,58.1,29.9,30.22,WSW,240,0.0,6.0,34,0.00,,---,0.00,VWS V14.01,2013-03-26 18:29:00,
2013-03-26 13:34:00,58.2,32.1,30.22,WSW,239,2.0,3.0,37,0.00,,---,0.00,VWS V14.01,2013-03-26 18:34:00,
2013-03-26 13:39:00,58.5,29.5,30.22,NNE,12,0.0,4.0,33,0.00,,---,0.00,VWS V14.01,2013-03-26 18:39:00,
2013-03-26 13:44:00,58.7,31.1,30.22,East,81,2.0,8.0,35,0.00,,---,0.00,VWS V14.01,2013-03-26 18:44:00,
2013-03-26 13:49:00,59.2,31.6,30.22,SW,228,1.0,8.0,35,0.00,,---,0.00,VWS V14.01,2013-03-26 18:49:00,
2013-03-26 13:54:00,58.8,30.5,30.21,WNW,288,1.0,8.0,34,0.00,,---,0.00,VWS V14.01,2013-03-26 18:54:00,
2013-03-26 13:59:00,59.0,29.2,30.21,SW,226,0.0,8.0,32,0.00,,---,0.00,VWS V14.01,2013-03-26 18:59:00,
2013-03-26 14:04:00,58.6,30.3,30.21,WSW,245,1.0,1.0,34,0.00,,---,0.00,VWS V14.01,2013-03-26 19:04:00,
2013-03-26 14:09:00,59.5,31.1,30.20,NW,312,4.0,5.0,34,0.00,,---,0.00,VWS V14.01,2013-03-26 19:09:00,
2013-03-26 14:14:00,59.7,32.0,30.20,ENE,67,2.0,5.0,35,0.00,,---,0.00,VWS V14.01,2013-03-26 19:14:00,
2013-03-26 14:19:00,59.4,31.0,30.20,SSW,200,2.0,5.0,34,0.00,,---,0.00,VWS V14.01,2013-03-26 19:19:00,
2013-03-26 14:24:00,59.9,31.5,30.20,ESE,103,2.0,5.0,34,0.00,,---,0.00,VWS V14.01,2013-03-26 19:24:00,
2013-03-26 14:29:00,59.5,30.4,30.20,SSW,205,1.0,5.0,33,0.00,,---,0.00,VWS V14.01,2013-03-26 19:29:00,
2013-03-26 14:34:00,59.6,30.5,30.20,NNW,347,0.0,2.0,33,0.00,,---,0.00,VWS V14.01,2013-03-26 19:34:00,
2013-03-26 14:39:00,59.9,30.8,30.20,West,271,0.0,5.0,33,0.00,,---,0.00,VWS V14.01,2013-03-26 19:39:00,
2013-03-26 14:44:00,59.7,30.6,30.20,NNW,329,2.0,5.0,33,0.00,,---,0.00,VWS V14.01,2013-03-26 19:44:00,
2013-03-26 14:49:00,59.5,28.9,30.20,WSW,255,0.0,5.0,31,0.00,,---,0.00,VWS V14.01,2013-03-26 19:49:00,
2013-03-26 14:54:00,59.8,29.1,30.19,WNW,283,0.0,5.0,31,0.00,,---,0.00,VWS V14.01,2013-03-26 19:54:00,
2013-03-26 14:59:00,60.0,31.6,30.20,WSW,243,0.0,6.0,34,0.00,,---,0.00,VWS V14.01,2013-03-26 19:59:00,
2013-03-26 15:04:00,60.3,32.6,30.19,SW,222,2.0,3.0,35,0.00,,---,0.00,VWS V14.01,2013-03-26 20:04:00,
2013-03-26 15:09:00,60.2,31.8,30.19,WNW,283,0.0,5.0,34,0.00,,---,0.00,VWS V14.01,2013-03-26 20:09:00,
2013-03-26 15:14:00,59.9,30.0,30.19,South,176,1.0,5.0,32,0.00,,---,0.00,VWS V14.01,2013-03-26 20:14:00,
2013-03-26 15:19:00,59.8,29.1,30.19,ESE,114,0.0,5.0,31,0.00,,---,0.00,VWS V14.01,2013-03-26 20:19:00,
2013-03-26 15:24:00,59.9,30.8,30.19,ENE,77,1.0,6.0,33,0.00,,---,0.00,VWS V14.01,2013-03-26 20:24:00,
2013-03-26 15:29:00,59.8,32.1,30.18,NW,325,3.0,7.0,35,0.00,,---,0.00,VWS V14.01,2013-03-26 20:29:00,
2013-03-26 15:34:00,60.2,30.2,30.18,SW,224,1.0,5.0,32,0.00,,---,0.00,VWS V14.01,2013-03-26 20:34:00,
2013-03-26 15:39:00,60.1,30.2,30.18,ENE,60,0.0,5.0,32,0.00,,---,0.00,VWS V14.01,2013-03-26 20:39:00,
2013-03-26 15:44:00,60.0,30.1,30.19,ENE,77,3.0,5.0,32,0.00,,---,0.00,VWS V14.01,2013-03-26 20:44:00,
2013-03-26 15:49:00,60.2,30.2,30.18,South,169,0.0,5.0,32,0.00,,---,0.00,VWS V14.01,2013-03-26 20:49:00,
2013-03-26 15:54:00,60.5,31.3,30.18,SW,231,1.0,5.0,33,0.00,,---,0.00,VWS V14.01,2013-03-26 20:54:00,
2013-03-26 15:59:00,60.1,30.2,30.18,WSW,255,0.0,5.0,32,0.00,,---,0.00,VWS V14.01,2013-03-26 20:59:00,
2013-03-26 16:04:00,60.1,30.9,30.18,WNW,299,2.0,2.0,33,0.00,,---,0.00,VWS V14.01,2013-03-26 21:04:00,
2013-03-26 16:30:00,59.6,29.7,30.18,WNW,287,1.0,7.0,32,0.00,,---,0.00,VWS V14.01,2013-03-26 21:30:00,
2013-03-26 16:42:00,58.9,29.9,30.18,North,359,4.0,5.0,33,0.00,,---,0.00,VWS V14.01,2013-03-26 21:42:00,
2013-03-26 16:47:00,58.7,29.7,30.18,WNW,285,0.0,7.0,33,0.00,,---,0.00,VWS V14.01,2013-03-26 21:47:00,
2013-03-26 16:52:00,58.2,29.3,30.18,East,95,2.0,7.0,33,0.00,,---,0.00,VWS V14.01,2013-03-26 21:52:00,
2013-03-26 16:57:00,58.1,29.9,30.18,ESE,112,0.0,7.0,34,0.00,,---,0.00,VWS V14.01,2013-03-26 21:57:00,
2013-03-26 17:02:00,58.4,30.2,30.18,WSW,245,1.0,7.0,34,0.00,,---,0.00,VWS V14.01,2013-03-26 22:02:00,
2013-03-26 17:07:00,58.4,30.9,30.18,NNW,341,0.0,4.0,35,0.00,,---,0.00,VWS V14.01,2013-03-26 22:07:00,
2013-03-26 17:12:00,58.3,29.3,30.18,West,264,1.0,5.0,33,0.00,,---,0.00,VWS V14.01,2013-03-26 22:12:00,
2013-03-26 17:17:00,57.9,29.7,30.18,WNW,300,0.0,5.0,34,0.00,,---,0.00,VWS V14.01,2013-03-26 22:17:00,
2013-03-26 17:22:00,57.9,31.1,30.18,ENE,75,0.0,5.0,36,0.00,,---,0.00,VWS V14.01,2013-03-26 22:22:00,